Location: Central Falls
(41.8900°N, 71.3929°W)
Time: 15:15:34
(UTC+00:00)

Vanguard 1 - Pass Details

Date: 06 December 2023
Orbit: 653 x 3826 km, 34.3° (Epoch: 24 February)

Event Time Altitude Azimuth Distance (km) Brightness Sun altitude
Rises 19:16:02 0° 182° (S) 4,659 14.5 15.8°
Reaches altitude 10° 19:20:11 10° 164° (SSE) 4,179 13.9 15.3°
Maximum altitude 19:27:18 18° 126° (SE) 4,345 13.4 14.5°
Drops below altitude 10° 19:36:50 10° 92° (E) 5,884 13.7 13.3°
Sets 19:44:37 0° 77° (ENE) 7,454 14.0 12.3°
